FDX122 LFBT-EGKK

Flight info

Callsign FDX122
Flight time 1h 29m
Altitude 28000
Route USAKU DCT AGN/N0465F320 DCT SECHE DCT UVELI DCT CNA DCT MANAK UY110 REVTU UP88 VASUX
Aircraft A306/H-SDE3FGHIRWY/LB1

Departure

Time 2026-05-08 03:47
Airport Tarbes-Lourdes-Pyrénées Airport (LFBT)

Arrival

Time 2026-05-08 05:16
Airport London Gatwick Airport (EGKK)
Time Latitude Longitude Altitude Speed Heading
2026-05-08 03:20 43.18514 0.00087 1204 ft 0 kts 165°
2026-05-08 03:43 43.18505 0.00089 1204 ft 3 kts 171°
2026-05-08 03:43 43.18487 0.00044 1205 ft 11 kts 264°
2026-05-08 03:43 43.18507 -0.00085 1205 ft 14 kts 284°
2026-05-08 03:43 43.18529 -0.00204 1205 ft 13 kts 284°
2026-05-08 03:44 43.18593 -0.00263 1203 ft 15 kts 11°
2026-05-08 03:44 43.18714 -0.00201 1200 ft 21 kts 21°
2026-05-08 03:44 43.18864 -0.00123 1195 ft 24 kts 19°
2026-05-08 03:44 43.19028 -0.00043 1190 ft 25 kts 19°
2026-05-08 03:45 43.19114 -0.00020 1187 ft 2 kts 32°
2026-05-08 03:45 43.19110 -0.00003 1187 ft 2 kts 121°
2026-05-08 03:45 43.19098 -0.00007 1187 ft 2 kts 207°
2026-05-08 03:45 43.19069 -0.00027 1188 ft 0 kts 200°
2026-05-08 03:46 43.18969 -0.00077 1191 ft 39 kts 200°
2026-05-08 03:46 43.18516 -0.00306 1207 ft 99 kts 200°
2026-05-08 03:46 43.17700 -0.00718 1248 ft 151 kts 200°
2026-05-08 03:47 43.16583 -0.01299 1505 ft 181 kts 200°
2026-05-08 03:47 43.15429 -0.01898 2488 ft 175 kts 199°
2026-05-08 03:47 43.14292 -0.02464 3306 ft 176 kts 199°
2026-05-08 03:47 43.13057 -0.03073 3614 ft 203 kts 198°
2026-05-08 03:48 43.11601 -0.03394 4003 ft 222 kts 174°
2026-05-08 03:48 43.10179 -0.02534 4606 ft 232 kts 136°
2026-05-08 03:48 43.09446 -0.00597 5285 ft 236 kts 98°
2026-05-08 03:48 43.09472 0.01653 6056 ft 238 kts 84°
2026-05-08 03:49 43.09665 0.03916 6797 ft 241 kts 83°
2026-05-08 03:49 43.09870 0.06209 7513 ft 245 kts 83°
2026-05-08 03:49 43.10065 0.08540 8256 ft 248 kts 84°
2026-05-08 03:49 43.10253 0.10897 8980 ft 251 kts 84°
2026-05-08 03:50 43.10523 0.13270 9663 ft 255 kts 74°
2026-05-08 03:50 43.11200 0.15569 10054 ft 271 kts 65°
2026-05-08 03:50 43.12080 0.17977 10223 ft 295 kts 63°
2026-05-08 03:50 43.13051 0.20563 10479 ft 315 kts 63°
2026-05-08 03:51 43.14144 0.23272 10711 ft 334 kts 55°
2026-05-08 03:51 43.15860 0.25455 10935 ft 352 kts 30°
2026-05-08 03:51 43.18222 0.26530 11170 ft 368 kts
2026-05-08 03:51 43.20805 0.26239 11449 ft 380 kts 343°
2026-05-08 03:52 43.23175 0.24588 11913 ft 386 kts 322°
2026-05-08 03:52 43.25262 0.22232 12445 ft 390 kts 319°
2026-05-08 03:52 43.27427 0.19938 12995 ft 396 kts 323°
2026-05-08 03:52 43.29716 0.17780 13551 ft 401 kts 326°
2026-05-08 03:53 43.32210 0.16020 14059 ft 407 kts 340°
2026-05-08 03:53 43.34971 0.15430 14636 ft 410 kts
2026-05-08 03:53 43.37797 0.15984 15246 ft 412 kts 12°
2026-05-08 03:53 43.40600 0.16901 15810 ft 414 kts 13°
2026-05-08 03:54 43.43416 0.17860 16368 ft 417 kts 13°
2026-05-08 03:54 43.46244 0.18816 16923 ft 420 kts 13°
2026-05-08 03:54 43.49100 0.19776 17445 ft 423 kts 13°
2026-05-08 03:54 43.51878 0.21146 17967 ft 427 kts 27°
2026-05-08 03:55 43.54252 0.23533 18427 ft 431 kts 45°
2026-05-08 03:55 43.56014 0.26866 18832 ft 434 kts 62°
2026-05-08 03:55 43.57285 0.30663 19249 ft 437 kts 67°
2026-05-08 03:55 43.58476 0.34537 19642 ft 440 kts 67°
2026-05-08 03:56 43.59684 0.38446 20026 ft 444 kts 67°
2026-05-08 03:56 43.60909 0.42368 20409 ft 447 kts 66°
2026-05-08 03:56 43.62251 0.46258 20780 ft 450 kts 60°
2026-05-08 03:56 43.64048 0.49799 21189 ft 452 kts 51°
2026-05-08 03:57 43.66045 0.53087 21569 ft 454 kts 48°
2026-05-08 03:57 43.68180 0.56316 21936 ft 457 kts 46°
2026-05-08 03:57 43.70369 0.59518 22306 ft 460 kts 46°
2026-05-08 03:57 43.72583 0.62747 22676 ft 462 kts 46°
2026-05-08 03:58 43.74792 0.65999 23046 ft 465 kts 46°
2026-05-08 03:58 43.76999 0.69290 23391 ft 467 kts 46°
2026-05-08 03:58 43.79203 0.72611 23703 ft 470 kts 46°
2026-05-08 03:58 43.81450 0.75892 23982 ft 471 kts 42°
2026-05-08 03:59 43.84013 0.78756 24282 ft 471 kts 32°
2026-05-08 03:59 43.86885 0.80915 24565 ft 470 kts 20°
2026-05-08 03:59 43.90012 0.82222 24878 ft 467 kts
2026-05-08 03:59 43.93236 0.82577 25192 ft 463 kts 355°
2026-05-08 04:00 43.96411 0.81981 25510 ft 459 kts 343°
2026-05-08 04:00 43.99421 0.80557 25829 ft 457 kts 335°
2026-05-08 04:00 44.02339 0.78819 26142 ft 456 kts 333°
2026-05-08 04:00 44.05215 0.76953 26426 ft 456 kts 332°
2026-05-08 04:01 44.08075 0.75035 26713 ft 457 kts 332°
2026-05-08 04:01 44.10901 0.73133 27026 ft 456 kts 332°
2026-05-08 04:01 44.13757 0.71228 27487 ft 453 kts 332°
2026-05-08 04:01 44.16596 0.69353 27855 ft 451 kts 332°
2026-05-08 04:02 44.19431 0.67494 27934 ft 449 kts 332°
2026-05-08 04:02 44.22248 0.65658 27944 ft 445 kts 332°
2026-05-08 04:02 44.25040 0.63840 27939 ft 443 kts 332°
2026-05-08 04:02 44.27835 0.62019 27937 ft 443 kts 332°
2026-05-08 04:03 44.30625 0.60200 27941 ft 443 kts 332°
2026-05-08 04:03 44.36211 0.56551 27945 ft 443 kts 332°
2026-05-08 04:03 44.39000 0.54726 27950 ft 443 kts 332°
2026-05-08 04:04 44.41796 0.52893 27950 ft 443 kts 332°
2026-05-08 04:04 44.44593 0.51056 27949 ft 443 kts 332°
2026-05-08 04:04 44.47380 0.49216 27954 ft 443 kts 332°
2026-05-08 04:04 44.50165 0.47372 27944 ft 443 kts 332°
2026-05-08 04:05 44.52948 0.45524 27957 ft 443 kts 332°
2026-05-08 04:05 44.55699 0.43696 27952 ft 443 kts 332°
2026-05-08 04:05 44.58487 0.41841 27959 ft 443 kts 332°
2026-05-08 04:05 44.61274 0.39985 27962 ft 443 kts 332°
2026-05-08 04:06 44.64061 0.38128 27961 ft 443 kts 332°
2026-05-08 04:06 44.66850 0.36268 27962 ft 443 kts 332°
2026-05-08 04:06 44.69642 0.34405 27962 ft 443 kts 332°
2026-05-08 04:06 44.72432 0.32540 27962 ft 443 kts 332°
2026-05-08 04:07 44.75215 0.30679 27965 ft 443 kts 332°
2026-05-08 04:07 44.78009 0.28807 27962 ft 443 kts 332°
2026-05-08 04:07 44.80757 0.26964 27962 ft 443 kts 332°
2026-05-08 04:07 44.83545 0.25092 27960 ft 443 kts 332°
2026-05-08 04:08 44.86329 0.23221 27959 ft 443 kts 332°
2026-05-08 04:08 44.89116 0.21346 27960 ft 443 kts 332°
2026-05-08 04:08 44.91901 0.19471 27958 ft 444 kts 332°
2026-05-08 04:08 44.94685 0.17596 27959 ft 444 kts 332°
2026-05-08 04:09 44.97471 0.15716 27956 ft 444 kts 332°
2026-05-08 04:09 45.00256 0.13835 27947 ft 444 kts 332°
2026-05-08 04:09 45.03043 0.11950 27951 ft 444 kts 332°
2026-05-08 04:09 45.05831 0.10063 27947 ft 444 kts 332°
2026-05-08 04:10 45.08631 0.08165 27951 ft 444 kts 332°
2026-05-08 04:10 45.11424 0.06270 27951 ft 444 kts 332°
2026-05-08 04:10 45.14208 0.04379 27944 ft 444 kts 332°
2026-05-08 04:10 45.16992 0.02485 27949 ft 444 kts 332°
2026-05-08 04:11 45.19753 0.00606 27952 ft 444 kts 332°
2026-05-08 04:11 45.22539 -0.01293 27957 ft 444 kts 332°
2026-05-08 04:11 45.25326 -0.03195 27949 ft 444 kts 332°
2026-05-08 04:11 45.28116 -0.05099 27946 ft 445 kts 332°
2026-05-08 04:12 45.30903 -0.07005 27953 ft 445 kts 332°
2026-05-08 04:12 45.33688 -0.08911 27960 ft 445 kts 332°
2026-05-08 04:12 45.36474 -0.10820 27952 ft 445 kts 332°
2026-05-08 04:12 45.39261 -0.12732 27944 ft 444 kts 332°
2026-05-08 04:13 45.42046 -0.14644 27949 ft 444 kts 332°
2026-05-08 04:13 45.44834 -0.16561 27946 ft 444 kts 332°
2026-05-08 04:13 45.47615 -0.18475 27945 ft 444 kts 332°
2026-05-08 04:13 45.50402 -0.20395 27944 ft 444 kts 332°
2026-05-08 04:14 45.53188 -0.22317 27943 ft 444 kts 332°
2026-05-08 04:14 45.55971 -0.24238 27941 ft 444 kts 332°
2026-05-08 04:14 45.58753 -0.26161 27939 ft 444 kts 332°
2026-05-08 04:14 45.61498 -0.28061 27938 ft 444 kts 332°
2026-05-08 04:15 45.64268 -0.30018 27934 ft 444 kts 329°
2026-05-08 04:15 45.66872 -0.32369 27942 ft 442 kts 323°
2026-05-08 04:15 45.69348 -0.34963 27939 ft 441 kts 321°
2026-05-08 04:15 45.71787 -0.37632 27939 ft 441 kts 321°
2026-05-08 04:16 45.74201 -0.40343 27940 ft 441 kts 320°
2026-05-08 04:16 45.76607 -0.43076 27943 ft 441 kts 320°
2026-05-08 04:16 45.79010 -0.45814 27940 ft 441 kts 320°
2026-05-08 04:16 45.81413 -0.48553 27945 ft 441 kts 320°
2026-05-08 04:17 45.83815 -0.51286 27945 ft 441 kts 320°
2026-05-08 04:17 45.86214 -0.54012 27945 ft 441 kts 320°
2026-05-08 04:17 45.88618 -0.56743 27942 ft 441 kts 320°
2026-05-08 04:17 45.91021 -0.59474 27945 ft 441 kts 320°
2026-05-08 04:18 45.93425 -0.62206 27949 ft 440 kts 320°
2026-05-08 04:18 45.95805 -0.64916 27944 ft 441 kts 320°
2026-05-08 04:18 45.98208 -0.67653 27944 ft 440 kts 320°
2026-05-08 04:18 46.00607 -0.70391 27941 ft 440 kts 320°
2026-05-08 04:19 46.03007 -0.73133 27943 ft 440 kts 320°
2026-05-08 04:19 46.05405 -0.75875 27945 ft 440 kts 320°
2026-05-08 04:19 46.07804 -0.78623 27941 ft 441 kts 320°
2026-05-08 04:19 46.10208 -0.81379 27942 ft 441 kts 320°
2026-05-08 04:20 46.12612 -0.84138 27944 ft 441 kts 320°
2026-05-08 04:20 46.14978 -0.86857 27947 ft 441 kts 320°
2026-05-08 04:20 46.17381 -0.89622 27940 ft 441 kts 320°
2026-05-08 04:20 46.19774 -0.92378 27938 ft 441 kts 320°
2026-05-08 04:21 46.22175 -0.95146 27940 ft 441 kts 320°
2026-05-08 04:21 46.24568 -0.97909 27939 ft 441 kts 320°
2026-05-08 04:21 46.26962 -1.00676 27938 ft 441 kts 320°
2026-05-08 04:21 46.29357 -1.03448 27941 ft 441 kts 320°
2026-05-08 04:22 46.31751 -1.06222 27943 ft 441 kts 320°
2026-05-08 04:22 46.34137 -1.08989 27939 ft 441 kts 320°
2026-05-08 04:22 46.36528 -1.11766 27939 ft 441 kts 319°
2026-05-08 04:22 46.38924 -1.14552 27939 ft 441 kts 319°
2026-05-08 04:23 46.41316 -1.17336 27939 ft 441 kts 319°
2026-05-08 04:23 46.43706 -1.20121 27941 ft 441 kts 319°
2026-05-08 04:23 46.46095 -1.22908 27949 ft 441 kts 319°
2026-05-08 04:23 46.48482 -1.25696 27954 ft 441 kts 319°
2026-05-08 04:24 46.50870 -1.28489 27957 ft 441 kts 319°
2026-05-08 04:24 46.53228 -1.31250 27960 ft 441 kts 319°
2026-05-08 04:24 46.55621 -1.34054 27964 ft 441 kts 319°
2026-05-08 04:24 46.58008 -1.36839 27963 ft 441 kts 321°
2026-05-08 04:25 46.60572 -1.39321 27969 ft 443 kts 328°
2026-05-08 04:25 46.63290 -1.41454 27968 ft 444 kts 330°
2026-05-08 04:25 46.66044 -1.43490 27968 ft 444 kts 331°
2026-05-08 04:25 46.68819 -1.45472 27965 ft 444 kts 332°
2026-05-08 04:26 46.71605 -1.47432 27967 ft 445 kts 332°
2026-05-08 04:26 46.74391 -1.49385 27968 ft 445 kts 332°
2026-05-08 04:26 46.76240 -1.50684 27963 ft 445 kts 332°
2026-05-08 04:26 46.79974 -1.53321 27962 ft 445 kts 332°
2026-05-08 04:27 46.82757 -1.55295 27962 ft 445 kts 332°
2026-05-08 04:27 46.85574 -1.57041 27958 ft 447 kts 338°
2026-05-08 04:27 46.88602 -1.58205 27959 ft 451 kts 347°
2026-05-08 04:27 46.90675 -1.58632 27964 ft 452 kts 350°
2026-05-08 04:28 46.93800 -1.59105 27962 ft 453 kts 352°
2026-05-08 04:28 46.96943 -1.59465 27961 ft 453 kts 353°
2026-05-08 04:28 47.00089 -1.59769 27963 ft 454 kts 353°
2026-05-08 04:28 47.03257 -1.60057 27970 ft 454 kts 353°
2026-05-08 04:29 47.06409 -1.60345 27974 ft 455 kts 353°
2026-05-08 04:29 47.09564 -1.60644 27973 ft 455 kts 353°
2026-05-08 04:29 47.12731 -1.60954 27971 ft 455 kts 353°
2026-05-08 04:29 47.15886 -1.61274 27976 ft 455 kts 353°
2026-05-08 04:30 47.19041 -1.61646 27975 ft 455 kts 352°
2026-05-08 04:30 47.22196 -1.62062 27966 ft 455 kts 352°
2026-05-08 04:30 47.25347 -1.62497 27973 ft 455 kts 352°
2026-05-08 04:30 47.28491 -1.62936 27976 ft 455 kts 352°
2026-05-08 04:31 47.31645 -1.63375 27974 ft 455 kts 352°
2026-05-08 04:31 47.34806 -1.63812 27971 ft 455 kts 352°
2026-05-08 04:31 47.37962 -1.64257 27962 ft 456 kts 352°
2026-05-08 04:31 47.41119 -1.64706 27975 ft 456 kts 352°
2026-05-08 04:32 47.44282 -1.65158 27962 ft 456 kts 352°
2026-05-08 04:32 47.47399 -1.65603 27971 ft 456 kts 352°
2026-05-08 04:32 47.50560 -1.66054 27969 ft 456 kts 352°
2026-05-08 04:32 47.53716 -1.66505 27975 ft 456 kts 351°
2026-05-08 04:33 47.56878 -1.66957 27971 ft 457 kts 352°
2026-05-08 04:33 47.60042 -1.67409 27976 ft 457 kts 352°
2026-05-08 04:33 47.63214 -1.67862 27977 ft 457 kts 352°
2026-05-08 04:33 47.66381 -1.68315 27975 ft 457 kts 351°
2026-05-08 04:34 47.69548 -1.68769 27980 ft 457 kts 352°
2026-05-08 04:34 47.72717 -1.69223 27980 ft 458 kts 351°
2026-05-08 04:34 47.75890 -1.69679 27986 ft 458 kts 351°
2026-05-08 04:34 47.79056 -1.70134 27985 ft 458 kts 351°
2026-05-08 04:35 47.82238 -1.70593 27986 ft 459 kts 351°
2026-05-08 04:35 47.85414 -1.71051 27991 ft 459 kts 351°
2026-05-08 04:35 47.88601 -1.71512 27992 ft 459 kts 351°
2026-05-08 04:35 47.91782 -1.71972 27993 ft 459 kts 351°
2026-05-08 04:36 47.94930 -1.72428 27995 ft 460 kts 351°
2026-05-08 04:36 47.98113 -1.72889 27995 ft 460 kts 352°
2026-05-08 04:36 48.01298 -1.73350 27993 ft 460 kts 352°
2026-05-08 04:36 48.04484 -1.73813 27995 ft 460 kts 351°
2026-05-08 04:37 48.07683 -1.74098 27997 ft 462 kts 355°
2026-05-08 04:37 48.10904 -1.74214 27992 ft 462 kts 356°
2026-05-08 04:37 48.14119 -1.74284 27992 ft 462 kts 356°
2026-05-08 04:37 48.17330 -1.74328 27994 ft 463 kts 356°
2026-05-08 04:38 48.20556 -1.74360 27993 ft 463 kts 357°
2026-05-08 04:38 48.23778 -1.74389 27993 ft 463 kts 357°
2026-05-08 04:38 48.27001 -1.74419 27996 ft 463 kts 357°
2026-05-08 04:38 48.30224 -1.74452 27997 ft 463 kts 357°
2026-05-08 04:39 48.33449 -1.74488 27992 ft 463 kts 357°
2026-05-08 04:39 48.36675 -1.74527 27991 ft 464 kts 357°
2026-05-08 04:39 48.39909 -1.74566 27996 ft 464 kts 357°
2026-05-08 04:39 48.43137 -1.74606 27995 ft 464 kts 357°
2026-05-08 04:40 48.46367 -1.74646 27995 ft 464 kts 357°
2026-05-08 04:40 48.49596 -1.74686 27994 ft 464 kts 357°
2026-05-08 04:40 48.52827 -1.74726 27998 ft 465 kts 357°
2026-05-08 04:40 48.56017 -1.74765 27997 ft 465 kts 357°
2026-05-08 04:41 48.59250 -1.74804 27995 ft 465 kts 357°
2026-05-08 04:41 48.62493 -1.74844 27993 ft 465 kts 357°
2026-05-08 04:41 48.65728 -1.74883 27993 ft 465 kts 357°
2026-05-08 04:41 48.68965 -1.74923 27997 ft 465 kts 357°
2026-05-08 04:42 48.75439 -1.75002 28003 ft 465 kts 357°
2026-05-08 04:42 48.81920 -1.75082 28003 ft 466 kts 357°
2026-05-08 04:43 48.85162 -1.75122 27999 ft 466 kts 357°
2026-05-08 04:43 48.88404 -1.75162 28003 ft 466 kts 357°
2026-05-08 04:43 48.94903 -1.75123 28001 ft 466 kts 359°
2026-05-08 04:44 49.01394 -1.74861 28010 ft 467 kts 359°
2026-05-08 04:44 49.07894 -1.74571 28016 ft 467 kts 359°
2026-05-08 04:45 49.14398 -1.74305 28010 ft 467 kts 359°
2026-05-08 04:45 49.20854 -1.74055 28010 ft 467 kts 359°
2026-05-08 04:46 49.27364 -1.73807 28018 ft 467 kts 359°
2026-05-08 04:46 49.33865 -1.73558 28016 ft 467 kts 359°
2026-05-08 04:47 49.40368 -1.73308 28014 ft 467 kts 359°
2026-05-08 04:47 49.46882 -1.73057 28018 ft 467 kts 359°
2026-05-08 04:48 49.53347 -1.72805 28021 ft 467 kts 359°
2026-05-08 04:48 49.59836 -1.72018 28018 ft 470 kts 10°
2026-05-08 04:49 49.66121 -1.69122 28020 ft 471 kts 17°
2026-05-08 04:49 49.72304 -1.65733 28021 ft 472 kts 18°
2026-05-08 04:50 49.78468 -1.62253 28020 ft 472 kts 18°
2026-05-08 04:50 49.84639 -1.58790 28022 ft 474 kts 18°
2026-05-08 04:51 49.90889 -1.55304 28018 ft 478 kts 18°
2026-05-08 04:51 49.97157 -1.51806 28021 ft 478 kts 18°
2026-05-08 04:52 50.03400 -1.48458 28004 ft 478 kts 16°
2026-05-08 04:52 50.06574 -1.46896 27741 ft 478 kts 15°
2026-05-08 04:52 50.09741 -1.45373 27207 ft 475 kts 15°
2026-05-08 04:53 50.12886 -1.43867 26501 ft 470 kts 15°
2026-05-08 04:53 50.15993 -1.42372 25940 ft 463 kts 15°
2026-05-08 04:53 50.19047 -1.40892 25376 ft 456 kts 16°
2026-05-08 04:53 50.22056 -1.39423 24799 ft 450 kts 16°
2026-05-08 04:54 50.25033 -1.37963 24213 ft 446 kts 16°
2026-05-08 04:54 50.27981 -1.36511 23640 ft 441 kts 16°
2026-05-08 04:54 50.30894 -1.35074 22988 ft 437 kts 16°
2026-05-08 04:54 50.33774 -1.33651 22414 ft 431 kts 16°
2026-05-08 04:55 50.36622 -1.32243 21871 ft 426 kts 16°
2026-05-08 04:55 50.39424 -1.30856 21345 ft 420 kts 16°
2026-05-08 04:55 50.42201 -1.29480 20819 ft 416 kts 16°
2026-05-08 04:55 50.44939 -1.28121 20302 ft 412 kts 16°
2026-05-08 04:56 50.47638 -1.26777 19781 ft 409 kts 17°
2026-05-08 04:56 50.50267 -1.25054 19239 ft 408 kts 28°
2026-05-08 04:56 50.52584 -1.22490 18725 ft 407 kts 38°
2026-05-08 04:56 50.54765 -1.19656 18165 ft 406 kts 39°
2026-05-08 04:57 50.56915 -1.16803 17592 ft 404 kts 39°
2026-05-08 04:57 50.59056 -1.13961 17053 ft 401 kts 39°
2026-05-08 04:57 50.61173 -1.11157 16513 ft 398 kts 39°
2026-05-08 04:57 50.63293 -1.08353 15940 ft 396 kts 39°
2026-05-08 04:58 50.65374 -1.05537 15422 ft 393 kts 43°
2026-05-08 04:58 50.67223 -1.02382 14925 ft 390 kts 50°
2026-05-08 04:58 50.68898 -0.99177 14797 ft 376 kts 51°
2026-05-08 04:58 50.70522 -0.96030 14688 ft 362 kts 51°
2026-05-08 04:59 50.72086 -0.92999 14523 ft 350 kts 51°
2026-05-08 04:59 50.73596 -0.90073 14375 ft 339 kts 51°
2026-05-08 04:59 50.75068 -0.87223 14219 ft 329 kts 51°
2026-05-08 04:59 50.76490 -0.84468 14078 ft 319 kts 51°
2026-05-08 05:00 50.77874 -0.81786 13814 ft 313 kts 51°
2026-05-08 05:00 50.79233 -0.79150 13418 ft 312 kts 51°
2026-05-08 05:00 50.80547 -0.76433 13038 ft 309 kts 58°
2026-05-08 05:00 50.81379 -0.73308 12581 ft 309 kts 76°
2026-05-08 05:01 50.81810 -0.70001 12157 ft 306 kts 79°
2026-05-08 05:01 50.82180 -0.66705 11771 ft 302 kts 80°
2026-05-08 05:01 50.82542 -0.63455 11408 ft 299 kts 79°
2026-05-08 05:01 50.82907 -0.60231 11043 ft 297 kts 79°
2026-05-08 05:02 50.83273 -0.57022 10683 ft 296 kts 79°
2026-05-08 05:02 50.83640 -0.53828 10319 ft 294 kts 79°
2026-05-08 05:02 50.84005 -0.50644 9953 ft 293 kts 79°
2026-05-08 05:02 50.84367 -0.47493 9569 ft 291 kts 79°
2026-05-08 05:03 50.84729 -0.44346 9220 ft 289 kts 79°
2026-05-08 05:03 50.85086 -0.41231 8856 ft 287 kts 79°
2026-05-08 05:03 50.85439 -0.38134 8520 ft 285 kts 79°
2026-05-08 05:03 50.85790 -0.35057 8178 ft 283 kts 79°
2026-05-08 05:04 50.86137 -0.31999 7822 ft 282 kts 79°
2026-05-08 05:04 50.86483 -0.28960 7486 ft 280 kts 79°
2026-05-08 05:04 50.86826 -0.25926 7126 ft 279 kts 80°
2026-05-08 05:04 50.87159 -0.22973 6861 ft 272 kts 80°
2026-05-08 05:05 50.87488 -0.20058 6612 ft 265 kts 80°
2026-05-08 05:05 50.87817 -0.17195 6287 ft 262 kts 77°
2026-05-08 05:05 50.88504 -0.14572 5910 ft 260 kts 52°
2026-05-08 05:05 50.89933 -0.12887 5499 ft 259 kts 17°
2026-05-08 05:06 50.91701 -0.12740 5146 ft 255 kts 344°
2026-05-08 05:06 50.93299 -0.13898 4832 ft 252 kts 328°
2026-05-08 05:06 50.94778 -0.15366 4520 ft 250 kts 327°
2026-05-08 05:06 50.96240 -0.16853 4203 ft 249 kts 327°
2026-05-08 05:07 50.97673 -0.18387 3976 ft 248 kts 320°
2026-05-08 05:07 50.98695 -0.20514 3608 ft 248 kts 292°
2026-05-08 05:07 50.99192 -0.23121 3312 ft 246 kts 284°
2026-05-08 05:07 50.99583 -0.25761 3045 ft 244 kts 283°
2026-05-08 05:08 50.99958 -0.28321 3023 ft 230 kts 283°
2026-05-08 05:08 51.00312 -0.30698 3016 ft 213 kts 283°
2026-05-08 05:08 51.00649 -0.32933 3002 ft 205 kts 284°
2026-05-08 05:08 51.00994 -0.35118 3003 ft 204 kts 284°
2026-05-08 05:09 51.01348 -0.37301 2999 ft 204 kts 285°
2026-05-08 05:09 51.01706 -0.39484 2999 ft 204 kts 285°
2026-05-08 05:09 51.02064 -0.41667 2998 ft 204 kts 285°
2026-05-08 05:09 51.02422 -0.43854 2996 ft 204 kts 285°
2026-05-08 05:10 51.02781 -0.46039 2997 ft 204 kts 284°
2026-05-08 05:10 51.03549 -0.50352 2996 ft 204 kts 293°
2026-05-08 05:10 51.04309 -0.52253 2995 ft 204 kts 313°
2026-05-08 05:11 51.05451 -0.53560 2998 ft 204 kts 335°
2026-05-08 05:11 51.06830 -0.54076 2999 ft 205 kts 358°
2026-05-08 05:11 51.08232 -0.53714 2998 ft 206 kts 20°
2026-05-08 05:11 51.09425 -0.52472 3000 ft 207 kts 47°
2026-05-08 05:12 51.10259 -0.50602 3002 ft 208 kts 61°
2026-05-08 05:12 51.10762 -0.48444 2999 ft 209 kts 76°
2026-05-08 05:12 51.11063 -0.46180 2999 ft 209 kts 78°
2026-05-08 05:12 51.11363 -0.43946 3003 ft 209 kts 77°
2026-05-08 05:13 51.11679 -0.41674 2968 ft 209 kts 77°
2026-05-08 05:13 51.12000 -0.39421 2710 ft 209 kts 77°
2026-05-08 05:13 51.12311 -0.37180 2416 ft 206 kts 78°
2026-05-08 05:13 51.12611 -0.34994 2109 ft 196 kts 78°
2026-05-08 05:14 51.12893 -0.32947 1870 ft 182 kts 78°
2026-05-08 05:14 51.13153 -0.31063 1613 ft 165 kts 78°
2026-05-08 05:14 51.13393 -0.29324 1389 ft 162 kts 78°
2026-05-08 05:14 51.13635 -0.27569 1140 ft 166 kts 78°
2026-05-08 05:15 51.13880 -0.25788 895 ft 162 kts 77°
2026-05-08 05:15 51.14117 -0.24069 674 ft 157 kts 77°
2026-05-08 05:15 51.14349 -0.22395 448 ft 153 kts 77°
2026-05-08 05:15 51.14572 -0.20761 242 ft 149 kts 77°
2026-05-08 05:16 51.14783 -0.19231 211 ft 126 kts 77°
2026-05-08 05:16 51.14947 -0.18041 218 ft 95 kts 77°
2026-05-08 05:16 51.15071 -0.17141 211 ft 72 kts 77°
2026-05-08 05:16 51.15129 -0.16725 217 ft 15 kts 78°
2026-05-08 05:17 51.15178 -0.16633 216 ft 10 kts 13°
2026-05-08 05:17 51.15224 -0.16641 214 ft 10 kts 347°
2026-05-08 05:17 51.15271 -0.16659 216 ft 0 kts 347°
2026-05-08 05:18 51.15272 -0.16660 216 ft 2 kts 347°
2026-05-08 05:18 51.15323 -0.16679 214 ft 10 kts 347°
2026-05-08 05:18 51.15378 -0.16756 215 ft 12 kts 272°
2026-05-08 05:18 51.15359 -0.16910 215 ft 17 kts 258°
2026-05-08 05:19 51.15334 -0.17090 216 ft 16 kts 257°
2026-05-08 05:19 51.15310 -0.17264 212 ft 17 kts 257°
2026-05-08 05:19 51.15293 -0.17464 214 ft 18 kts 261°
2026-05-08 05:19 51.15269 -0.17649 217 ft 17 kts 258°
2026-05-08 05:20 51.15245 -0.17822 219 ft 15 kts 258°
2026-05-08 05:20 51.15223 -0.17984 213 ft 16 kts 258°
2026-05-08 05:20 51.15196 -0.18179 212 ft 22 kts 257°
2026-05-08 05:20 51.15161 -0.18449 217 ft 25 kts 259°
2026-05-08 05:21 51.15144 -0.18648 213 ft 14 kts 287°
2026-05-08 05:21 51.15232 -0.18688 213 ft 16 kts
2026-05-08 05:21 51.15359 -0.18720 212 ft 20 kts 346°
2026-05-08 05:21 51.15475 -0.18803 216 ft 17 kts 348°
2026-05-08 05:22 51.15582 -0.18819 217 ft 13 kts
2026-05-08 05:22 51.15665 -0.18824 213 ft 7 kts 348°
2026-05-08 05:22 51.15667 -0.18825 214 ft 0 kts 348°